When you browse on this site, cookies collect data to enhance your experience and personalize the content and advertising you see.
Visit our Privacy Policy to learn more. By continuing to use the site, you agree to this use of cookies and data.
  • In Hungary
  • List of Countries
  • For 7 days
  • Water Temperature
  • Satellite Maps
  • Weather Map
  • News
  • Weather Widgets
  • user-avatar
    Login

    Hourly Weather Kuantan

    Today, 19 January, Saturday

    Time Temperature Precipitation Wind Pressure Humidity
    00:00 +26°C° 0 mm 4 mps 754 mmHg 89%
    01:00 +26°C° 0 mm 4 mps 754 mmHg 89%
    02:00 +26°C° 0.1 mm 4 mps 754 mmHg 90%
    03:00 +25°C° 0.1 mm 4 mps 754 mmHg 90%
    04:00 +25°C° 0.1 mm 4 mps 754 mmHg 90%
    05:00 +25°C° 0 mm 4 mps 754 mmHg 90%
    06:00 +25°C° 0 mm 4 mps 754 mmHg 89%
    07:00 +25°C° 0 mm 4 mps 754 mmHg 89%
    08:00 +27°C° 0.1 mm 4 mps 754 mmHg 81%
    09:00 +29°C° 0.1 mm 5 mps 754 mmHg 73%
    10:00 +32°C° 0.1 mm 5 mps 755 mmHg 65%
    11:00 +33°C° 0.1 mm 5 mps 754 mmHg 62%
    12:00 +33°C° 0.1 mm 5 mps 754 mmHg 60%
    13:00 +34°C° 0.1 mm 6 mps 754 mmHg 57%
    14:00 +33°C° 0 mm 6 mps 753 mmHg 58%
    15:00 +33°C° 0 mm 6 mps 753 mmHg 60%
    16:00 +33°C° 0 mm 5 mps 752 mmHg 61%
    17:00 +30°C° 0 mm 5 mps 753 mmHg 67%
    18:00 +29°C° 0 mm 5 mps 753 mmHg 74%
    19:00 +28°C° 0 mm 4 mps 753 mmHg 80%
    20:00 +27°C° 0 mm 4 mps 754 mmHg 82%
    21:00 +27°C° 0 mm 4 mps 754 mmHg 84%
    22:00 +26°C° 0 mm 4 mps 755 mmHg 87%
    23:00 +26°C° 0 mm 4 mps 754 mmHg 87%

    Tomorrow, 20 January, Sunday

    Time Temperature Precipitation Wind Pressure Humidity
    00:00 +26°C° 0 mm 4 mps 754 mmHg 88%
    01:00 +26°C° 0 mm 4 mps 754 mmHg 89%
    02:00 +26°C° 0 mm 4 mps 754 mmHg 89%
    03:00 +26°C° 0 mm 4 mps 754 mmHg 89%
    04:00 +25°C° 0 mm 4 mps 753 mmHg 89%
    05:00 +26°C° 0.1 mm 4 mps 754 mmHg 89%
    06:00 +26°C° 0.1 mm 4 mps 754 mmHg 88%
    07:00 +26°C° 0.1 mm 4 mps 754 mmHg 87%
    08:00 +28°C° 0.1 mm 4 mps 754 mmHg 80%
    09:00 +30°C° 0.1 mm 4 mps 755 mmHg 72%
    10:00 +33°C° 0.1 mm 5 mps 755 mmHg 64%
    11:00 +33°C° 0 mm 5 mps 755 mmHg 61%
    12:00 +34°C° 0 mm 5 mps 754 mmHg 58%
    13:00 +35°C° 0 mm 5 mps 754 mmHg 54%
    14:00 +34°C° 0 mm 5 mps 753 mmHg 56%
    15:00 +34°C° 0 mm 6 mps 753 mmHg 57%
    16:00 +34°C° 0 mm 6 mps 752 mmHg 58%
    17:00 +32°C° 0 mm 5 mps 752 mmHg 65%
    18:00 +30°C° 0 mm 5 mps 753 mmHg 71%
    19:00 +28°C° 0 mm 5 mps 753 mmHg 78%
    20:00 +28°C° 0 mm 5 mps 754 mmHg 80%
    21:00 +27°C° 0 mm 5 mps 755 mmHg 83%
    22:00 +27°C° 0 mm 4 mps 755 mmHg 85%
    23:00 +27°C° 0 mm 4 mps 755 mmHg 86%

    Day after tomorrow, 21 January, Monday

    Time Temperature Precipitation Wind Pressure Humidity
    00:00 +27°C° 0 mm 4 mps 755 mmHg 87%
    01:00 +26°C° 0 mm 4 mps 754 mmHg 87%
    02:00 +26°C° 0 mm 4 mps 754 mmHg 88%
    03:00 +26°C° 0 mm 4 mps 754 mmHg 88%
    04:00 +26°C° 0 mm 4 mps 753 mmHg 88%
    05:00 +26°C° 0 mm 4 mps 754 mmHg 88%
    06:00 +26°C° 0 mm 4 mps 754 mmHg 87%
    07:00 +26°C° 0 mm 3 mps 755 mmHg 87%
    08:00 +28°C° 0 mm 4 mps 755 mmHg 78%
    09:00 +30°C° 0 mm 4 mps 756 mmHg 68%
    10:00 +33°C° 0 mm 4 mps 756 mmHg 59%
    11:00 +34°C° 0 mm 4 mps 755 mmHg 56%
    12:00 +34°C° 0 mm 4 mps 755 mmHg 53%
    13:00 +35°C° 0 mm 5 mps 754 mmHg 49%
    14:00 +35°C° 0 mm 5 mps 754 mmHg 52%
    15:00 +34°C° 0 mm 5 mps 753 mmHg 55%
    16:00 +34°C° 0 mm 6 mps 752 mmHg 57%
    17:00 +32°C° 0 mm 5 mps 753 mmHg 63%
    18:00 +29°C° 0 mm 5 mps 753 mmHg 69%
    19:00 +28°C° 0 mm 4 mps 754 mmHg 75%
    20:00 +27°C° 0 mm 4 mps 755 mmHg 77%
    21:00 +27°C° 0 mm 4 mps 755 mmHg 79%
    22:00 +26°C° 0 mm 4 mps 756 mmHg 82%
    23:00 +26°C° 0 mm 3 mps 755 mmHg 82%

    22 January, Tuesday

    Time Temperature Precipitation Wind Pressure Humidity
    00:00 +26°C° 0 mm 3 mps 755 mmHg 83%
    01:00 +26°C° 0 mm 3 mps 755 mmHg 83%
    02:00 +26°C° 0 mm 3 mps 754 mmHg 83%
    03:00 +26°C° 0 mm 3 mps 754 mmHg 83%
    04:00 +25°C° 0 mm 3 mps 754 mmHg 83%
    05:00 +25°C° 0 mm 3 mps 754 mmHg 83%
    06:00 +26°C° 0 mm 2 mps 755 mmHg 82%
    07:00 +26°C° 0 mm 2 mps 755 mmHg 81%
    08:00 +27°C° 0 mm 2 mps 756 mmHg 75%
    09:00 +29°C° 0 mm 3 mps 756 mmHg 69%
    10:00 +30°C° 0 mm 3 mps 756 mmHg 63%
    11:00 +31°C° 0 mm 3 mps 756 mmHg 59%
    12:00 +33°C° 0 mm 3 mps 755 mmHg 55%
    13:00 +34°C° 0 mm 3 mps 755 mmHg 52%
    14:00 +34°C° 0 mm 4 mps 754 mmHg 52%
    15:00 +34°C° 0 mm 4 mps 754 mmHg 52%
    16:00 +34°C° 0 mm 5 mps 753 mmHg 52%
    17:00 +32°C° 0 mm 4 mps 754 mmHg 60%
    18:00 +29°C° 0 mm 4 mps 754 mmHg 67%
    19:00 +28°C° 0 mm 4 mps 755 mmHg 74%
    20:00 +27°C° 0.1 mm 4 mps 755 mmHg 76%
    21:00 +27°C° 0.1 mm 4 mps 756 mmHg 79%
    22:00 +27°C° 0.1 mm 4 mps 757 mmHg 81%
    23:00 +26°C° 0 mm 3 mps 756 mmHg 82%

    23 January, Wednesday

    Time Temperature Precipitation Wind Pressure Humidity
    00:00 +26°C° 0 mm 3 mps 756 mmHg 83%
    01:00 +26°C° 0 mm 3 mps 755 mmHg 84%
    02:00 +26°C° 0.1 mm 3 mps 755 mmHg 85%
    03:00 +26°C° 0.1 mm 3 mps 755 mmHg 86%
    04:00 +25°C° 0.1 mm 3 mps 755 mmHg 86%
    05:00 +25°C° 0 mm 3 mps 755 mmHg 86%
    06:00 +26°C° 0 mm 3 mps 755 mmHg 85%
    07:00 +26°C° 0 mm 3 mps 756 mmHg 84%
    08:00 +27°C° 0 mm 3 mps 756 mmHg 78%
    09:00 +29°C° 0 mm 4 mps 757 mmHg 72%
    10:00 +30°C° 0 mm 4 mps 757 mmHg 66%
    11:00 +32°C° 0 mm 4 mps 756 mmHg 62%
    12:00 +33°C° 0 mm 5 mps 756 mmHg 59%
    13:00 +34°C° 0 mm 5 mps 755 mmHg 56%
    14:00 +33°C° 0.3 mm 5 mps 754 mmHg 58%
    15:00 +32°C° 0.3 mm 6 mps 754 mmHg 61%
    16:00 +32°C° 0.3 mm 6 mps 754 mmHg 64%
    17:00 +30°C° 0.1 mm 5 mps 754 mmHg 70%
    18:00 +28°C° 0.1 mm 5 mps 754 mmHg 75%
    19:00 +27°C° 0.1 mm 4 mps 755 mmHg 81%
    20:00 +27°C° 0.1 mm 4 mps 755 mmHg 83%
    21:00 +27°C° 0.1 mm 4 mps 756 mmHg 85%
    22:00 +26°C° 0.1 mm 4 mps 756 mmHg 86%
    23:00 +26°C° 0.1 mm 4 mps 756 mmHg 87%

    24 January, Thursday

    Time Temperature Precipitation Wind Pressure Humidity
    00:00 +26°C° 0.1 mm 4 mps 756 mmHg 89%
    01:00 +26°C° 0.1 mm 4 mps 756 mmHg 90%
    02:00 +26°C° 0.1 mm 4 mps 755 mmHg 90%
    03:00 +26°C° 0.1 mm 3 mps 755 mmHg 91%
    04:00 +25°C° 0.1 mm 3 mps 755 mmHg 91%
    05:00 +25°C° 0 mm 3 mps 755 mmHg 91%
    06:00 +25°C° 0 mm 3 mps 755 mmHg 90%
    07:00 +26°C° 0 mm 3 mps 756 mmHg 90%
    08:00 +27°C° 0 mm 4 mps 756 mmHg 81%
    09:00 +29°C° 0 mm 4 mps 756 mmHg 73%
    10:00 +32°C° 0 mm 5 mps 757 mmHg 64%
    11:00 +32°C° 0 mm 5 mps 756 mmHg 61%
    12:00 +33°C° 0 mm 5 mps 756 mmHg 58%
    13:00 +34°C° 0 mm 5 mps 755 mmHg 55%
    14:00 +33°C° 0 mm 5 mps 755 mmHg 56%
    15:00 +33°C° 0 mm 5 mps 754 mmHg 58%
    16:00 +32°C° 0 mm 5 mps 754 mmHg 60%
    17:00 +30°C° 0 mm 5 mps 754 mmHg 65%
    18:00 +29°C° 0 mm 5 mps 755 mmHg 71%
    19:00 +28°C° 0 mm 4 mps 755 mmHg 76%
    20:00 +27°C° 0 mm 4 mps 756 mmHg 78%
    21:00 +27°C° 0 mm 4 mps 756 mmHg 80%
    22:00 +27°C° 0 mm 4 mps 757 mmHg 82%
    23:00 +26°C° 0 mm 4 mps 756 mmHg 83%
    Show more